Location: St. Louis
(38.6270°N, 90.1994°W)
Time: 21:19:40
(UTC-06:00)

Vanguard 2 - Pass Details

Date: 09 December 2021
Orbit: 553 x 2936 km, 32.9° (Epoch: 21 January)

Event Time Altitude Azimuth Distance (km) Brightness Sun altitude
Rises 13:24:26 0° 259° (WSW) 2,734 10.8 24.9°
Reaches altitude 10° 13:26:31 10° 251° (WSW) 1,901 10.3 24.7°
Maximum altitude 13:30:30 43° 179° (S) 958 9.4 24.4°
Drops below altitude 10° 13:35:56 10° 109° (ESE) 2,592 10.2 24.0°
Sets 13:39:15 0° 103° (ESE) 3,881 11.0 23.7°
